Blue Grass (LEX)

 

Airport Diagram
Current Weather/Forecast (VFR Conditions)
METAR KLEX 051154Z 05008KT 10SM CLR M05/M08 A3027 RMK AO2 SLP258 T10501083 11033 21056 51009
TAF KLEX 051141Z 0512/0612 06007KT P6SM SKC FM051800 02008KT P6SM SKC

Airport Information

All Charts
General
Chart Name View
AIRPORT DIAGRAM
AIRPORT DIAGRAM
TAKEOFF MINIMUMS
ALTERNATE MINIMUMS
TAKEOFF MINIMUMS
ALTERNATE MINIMUMS
HOT SPOT
HOT SPOT

Arrivals
Chart Name Download
CLEGG FIVE
CLEGG FIVE

Approaches
Chart Name Download
ILS OR LOC RWY 04
ILS OR LOC RWY 22
RNAV (GPS) RWY 04
RNAV (GPS) RWY 09
RNAV (GPS) RWY 22
RNAV (GPS) RWY 27
VOR-A
ILS OR LOC RWY 04
ILS OR LOC RWY 22
RNAV (GPS) RWY 04
RNAV (GPS) RWY 09
RNAV (GPS) RWY 22
RNAV (GPS) RWY 27
VOR-A


Airport Statistics
Departures Arrivals Local
All Collected Stats since June 2016: 396 369 11
2021 Stats: 44 47 0
March Stats: 4 7 0

Inbound Traffic (Arrivals) - 0

No inbound traffic.


Outbound Traffic (Departures) - 0

No outbound traffic.


Local Traffic (Pattern) - 0

No local traffic.